Tracking 19638 objects as of 20-May-2019
HD Live streaming from Space Station
objects crossing your sky now

RUBIN 3/SL-8

Track RUBIN 3/SL-8 now!
10-day predictions
RUBIN 3/SL-8 is classified as:


NORAD ID: 27561
Int'l Code: 2002-054C
Perigee: 681.2 km
Apogee: 747.1 km
Inclination: 98.4 °
Period: 98.9 minutes
Semi major axis: 7085 km
RCS: 7.5153 m2 (large)
Launch date: November 28, 2002
Source: Germany (GER)
Launch site: PLESETSK MISSILE AND SPACE COMPLEX (PKMTR)
aabbcc
Your satellite tracking list
Your tracking list is empty




NASA's NSSDC Master Catalog

Two Line Element Set (TLE):
1 27561U 02054C   19139.86030852  .00000056  00000-0  23631-4 0  9997
2 27561  98.3559 280.0444 0046497 166.9797 193.2613 14.55736145874363
Source of the keplerian elements: AFSPC